,,Stat5,,Stat1,,Stat2,,Stat3,,Stat4,,Wind1,,Wind1,
time,status,PA1M_AVG,status,PR1M_SUM,status,RH1M_AVG,status,SR1M_AVG,status,TA1M_AVG,status,W1dAve1m,status,W1sAve1m,
2001-08-06, 00:00:00,VALID,919.268,VALID,0,VALID,97.9771,VALID,-0.0169808,VALID,19.1146,VALID,72,VALID,1.02111,
2001-08-06, 00:01:00,VALID,919.253,VALID,0,VALID,97.9364,VALID,-0.0509425,VALID,19.1253,VALID,78,VALID,0.810033,
2001-08-06, 00:02:00,VALID,919.236,VALID,0,VALID,97.85,VALID,-0.0169808,VALID,19.0989,VALID,71,VALID,0.725929,
2001-08-06, 00:03:00,VALID,919.231,VALID,0,VALID,97.8118,VALID,0,VALID,19.0858,VALID,80,VALID,0.483008,
2001-08-06, 00:04:00,VALID,919.214,VALID,0,VALID,97.7584,VALID,0,VALID,19.0761,VALID,85,VALID,0.409128,
2001-08-06, 00:05:00,VALID,919.192,VALID,0,VALID,97.7292,VALID,-0.0169808,VALID,19.0632,VALID,83,VALID,0.619449,
2001-08-06, 00:06:00,VALID,919.173,VALID,0,VALID,97.7813,VALID,-0.0169808,VALID,19.0401,VALID,85,VALID,0.478463,
2001-08-06, 00:07:00,VALID,919.167,VALID,0,VALID,97.8296,VALID,0,VALID,19.0503,VALID,65,VALID,0.510216,
2001-08-06, 00:08:00,VALID,919.183,VALID,0,VALID,97.8652,VALID,0,VALID,19.0537,VALID,44,VALID,0.339343,
2001-08-06, 00:09:00,VALID,919.178,VALID,0,VALID,97.9136,VALID,-0.0169808,VALID,19.0433,VALID,39,VALID,0.0990349,
2001-08-06, 00:10:00,VALID,919.16,VALID,0,VALID,97.9377,VALID,-0.0169808,VALID,19.0567,VALID,39,VALID,0.250822,
2001-08-06, 00:11:00,VALID,919.148,VALID,0,VALID,97.9822,VALID,-0.0169808,VALID,19.0629,VALID,39,VALID,0.342483,
2001-08-06, 00:12:00,VALID,919.13,VALID,0,VALID,97.9708,VALID,0,VALID,19.0729,VALID,39,VALID,0.486762,
2001-08-06, 00:13:00,VALID,919.104,VALID,0,VALID,97.9631,VALID,-0.0169808,VALID,19.0632,VALID,39,VALID,0.473741,
2001-08-06, 00:14:00,VALID,919.064,VALID,0,VALID,97.8843,VALID,0.0849042,VALID,19.0558,VALID,37,VALID,0.600329,
2001-08-06, 00:15:00,VALID,919.065,VALID,0,VALID,97.8538,VALID,0.0849042,VALID,19.0528,VALID,24,VALID,0.57463,
2001-08-06, 00:16:00,VALID,919.06,VALID,0,VALID,97.8563,VALID,0.0679233,VALID,19.056,VALID,10,VALID,0.672743,
2001-08-06, 00:17:00,VALID,919.017,VALID,0,VALID,97.8347,VALID,0.101885,VALID,19.0361,VALID,2,VALID,0.585938,
2001-08-06, 00:18:00,VALID,918.988,VALID,0,VALID,97.8462,VALID,0.0679233,VALID,19.0264,VALID,332,VALID,0.553043,
2001-08-06, 00:19:00,VALID,918.972,VALID,0,VALID,97.8614,VALID,0.101885,VALID,19.0297,VALID,269,VALID,0.376202,
2001-08-06, 00:20:00,VALID,918.96,VALID,0,VALID,97.9403,VALID,0.0679233,VALID,19.0324,VALID,256,VALID,0.459375,
2001-08-06, 00:21:00,VALID,918.916,VALID,0,VALID,98.0127,VALID,0.101885,VALID,19.0428,VALID,256,VALID,0.475946,
2001-08-06, 00:22:00,VALID,918.893,VALID,0,VALID,98.0865,VALID,0.0339617,VALID,19.0426,VALID,257,VALID,0.237253,
2001-08-06, 00:23:00,VALID,918.88,VALID,0,VALID,98.1641,VALID,0.0339617,VALID,19.0426,VALID,259,VALID,0.139022,
2001-08-06, 00:24:00,VALID,918.857,VALID,0,VALID,98.2111,VALID,0.0509425,VALID,19.0525,VALID,262,VALID,0.0592949,
2001-08-06, 00:25:00,VALID,918.826,VALID,0,VALID,98.2683,VALID,0.0169808,VALID,19.0659,VALID,263,VALID,0.0396635,
2001-08-06, 00:26:00,VALID,918.831,VALID,0,VALID,98.2963,VALID,0.0339617,VALID,19.0851,VALID,265,VALID,0.0783548,
2001-08-06, 00:27:00,VALID,918.831,VALID,0,VALID,98.2798,VALID,0.101885,VALID,19.0818,VALID,265,VALID,0,
2001-08-06, 00:28:00,VALID,918.815,VALID,0,VALID,98.2416,VALID,0.0169808,VALID,19.0883,VALID,265,VALID,0,
2001-08-06, 00:29:00,VALID,918.816,VALID,0,VALID,98.2073,VALID,-0.0849042,VALID,19.0733,VALID,303,VALID,0.0928819,
2001-08-06, 00:30:00,VALID,918.786,VALID,0,VALID,98.1501,VALID,-0.0509425,VALID,19.0604,VALID,26,VALID,0.258446,
2001-08-06, 00:31:00,VALID,918.769,VALID,0,VALID,98.0611,VALID,-0.0339617,VALID,19.0473,VALID,35,VALID,0.448602,
2001-08-06, 00:32:00,VALID,918.766,VALID,0,VALID,97.9937,VALID,-0.0679233,VALID,19.0346,VALID,36,VALID,0.324002,
2001-08-06, 00:33:00,VALID,918.759,VALID,0,VALID,97.911,VALID,-0.0339617,VALID,19.0321,VALID,36,VALID,0.0618666,
2001-08-06, 00:34:00,VALID,918.764,VALID,0,VALID,97.8182,VALID,-0.0509425,VALID,19.0182,VALID,36,VALID,0.0807292,
2001-08-06, 00:35:00,VALID,918.752,VALID,0,VALID,97.6465,VALID,-0.0339617,VALID,19.0187,VALID,64,VALID,0.413651,
2001-08-06, 00:36:00,VALID,918.728,VALID,0,VALID,97.4901,VALID,-0.0849042,VALID,19.0023,VALID,85,VALID,0.528927,
2001-08-06, 00:37:00,VALID,918.72,VALID,0,VALID,97.3362,VALID,-0.0679233,VALID,19.0187,VALID,104,VALID,0.533537,
2001-08-06, 00:38:00,VALID,918.724,VALID,0,VALID,97.1951,VALID,-0.0509425,VALID,19.0254,VALID,105,VALID,0.40957,
2001-08-06, 00:39:00,VALID,918.718,VALID,0,VALID,97.1824,VALID,-0.0509425,VALID,19.0316,VALID,110,VALID,0.704153,
2001-08-06, 00:40:00,VALID,918.71,VALID,0,VALID,97.2358,VALID,-0.0849042,VALID,19.0376,VALID,103,VALID,0.591639,
2001-08-06, 00:41:00,VALID,918.711,VALID,0,VALID,97.2714,VALID,-0.0339617,VALID,19.0413,VALID,83,VALID,0.433203,
2001-08-06, 00:42:00,VALID,918.697,VALID,0,VALID,97.2053,VALID,-0.0679233,VALID,19.0221,VALID,58,VALID,0.472039,
2001-08-06, 00:43:00,VALID,918.683,VALID,0,VALID,97.0959,VALID,-0.0509425,VALID,18.9698,VALID,40,VALID,1.04397,
2001-08-06, 00:44:00,VALID,918.67,VALID,0,VALID,97.1608,VALID,-0.0849042,VALID,18.9285,VALID,82,VALID,0.978252,
2001-08-06, 00:45:00,VALID,918.659,VALID,0,VALID,97.2968,VALID,-0.0509425,VALID,18.926,VALID,94,VALID,0.88737,
2001-08-06, 00:46:00,VALID,918.628,VALID,0,VALID,97.3197,VALID,-0.0509425,VALID,18.8895,VALID,102,VALID,1.07834,
2001-08-06, 00:47:00,VALID,918.603,VALID,0,VALID,97.4125,VALID,-0.0849042,VALID,18.8701,VALID,100,VALID,0.991386,
2001-08-06, 00:48:00,VALID,918.583,VALID,0,VALID,97.5143,VALID,-0.0679233,VALID,18.841,VALID,103,VALID,1.25678,
2001-08-06, 00:49:00,VALID,918.569,VALID,0,VALID,97.6669,VALID,-0.0339617,VALID,18.8251,VALID,101,VALID,1.03865,
2001-08-06, 00:50:00,VALID,918.558,VALID,0,VALID,97.8589,VALID,-0.0679233,VALID,18.812,VALID,114,VALID,0.843539,
2001-08-06, 00:51:00,VALID,918.556,VALID,0,VALID,97.9924,VALID,-0.0509425,VALID,18.8152,VALID,124,VALID,0.608724,
2001-08-06, 00:52:00,VALID,918.553,VALID,0,VALID,98.1196,VALID,-0.0679233,VALID,18.8122,VALID,129,VALID,0.884079,
2001-08-06, 00:53:00,VALID,918.542,VALID,0,VALID,98.2353,VALID,-0.0509425,VALID,18.8184,VALID,132,VALID,1.00123,
2001-08-06, 00:54:00,VALID,918.495,VALID,0,VALID,98.3128,VALID,-0.0509425,VALID,18.8115,VALID,130,VALID,0.85617,
2001-08-06, 00:55:00,VALID,918.474,VALID,0,VALID,98.4057,VALID,-0.0509425,VALID,18.815,VALID,131,VALID,0.960136,
2001-08-06, 00:56:00,VALID,918.44,VALID,0,VALID,98.4807,VALID,-0.0849042,VALID,18.8217,VALID,125,VALID,0.938767,
2001-08-06, 00:57:00,VALID,918.444,VALID,0,VALID,98.5176,VALID,-0.0509425,VALID,18.8281,VALID,131,VALID,0.52426,
2001-08-06, 00:58:00,VALID,918.427,VALID,0,VALID,98.5519,VALID,-0.0679233,VALID,18.8447,VALID,139,VALID,0.914463,
2001-08-06, 00:59:00,VALID,918.404,VALID,0,VALID,98.5773,VALID,-0.0339617,VALID,18.8343,VALID,139,VALID,0.76222,
2001-08-06, 01:00:00,VALID,918.377,VALID,0,VALID,98.604,VALID,-0.0679233,VALID,18.8346,VALID,120,VALID,0.496324,
2001-08-06, 01:01:00,VALID,918.379,VALID,0,VALID,98.6155,VALID,-0.0339617,VALID,18.8378,VALID,149,VALID,0.430099,
2001-08-06, 01:02:00,VALID,918.373,VALID,0,VALID,98.604,VALID,-0.0509425,VALID,18.8383,VALID,143,VALID,0.444046,
2001-08-06, 01:03:00,VALID,918.381,VALID,0,VALID,98.6269,VALID,-0.0339617,VALID,18.851,VALID,144,VALID,0.696181,
2001-08-06, 01:04:00,VALID,918.375,VALID,0,VALID,98.6091,VALID,-0.0169808,VALID,18.8507,VALID,126,VALID,0.500434,
2001-08-06, 01:05:00,VALID,918.366,VALID,0,VALID,98.6104,VALID,-0.0509425,VALID,18.8577,VALID,112,VALID,0.639391,
2001-08-06, 01:06:00,VALID,918.34,VALID,0,VALID,98.5951,VALID,-0.0509425,VALID,18.8445,VALID,110,VALID,0.515419,
2001-08-06, 01:07:00,VALID,918.332,VALID,0,VALID,98.59,VALID,-0.0339617,VALID,18.8445,VALID,124,VALID,0.409939,
2001-08-06, 01:08:00,VALID,918.331,VALID,0,VALID,98.5964,VALID,-0.0339617,VALID,18.8182,VALID,144,VALID,0.444196,
2001-08-06, 01:09:00,VALID,918.32,VALID,0,VALID,98.6066,VALID,-0.0339617,VALID,18.8152,VALID,150,VALID,0.646793,
2001-08-06, 01:10:00,VALID,918.323,VALID,0,VALID,98.6358,VALID,-0.0339617,VALID,18.8184,VALID,150,VALID,0.687099,
2001-08-06, 01:11:00,VALID,918.316,VALID,0,VALID,98.6396,VALID,-0.0509425,VALID,18.8184,VALID,144,VALID,0.749023,
2001-08-06, 01:12:00,VALID,918.302,VALID,0,VALID,98.6346,VALID,-0.0509425,VALID,18.8058,VALID,151,VALID,0.725535,
2001-08-06, 01:13:00,VALID,918.288,VALID,0,VALID,98.6651,VALID,-0.0509425,VALID,18.8125,VALID,146,VALID,0.714844,
2001-08-06, 01:14:00,VALID,918.275,VALID,0,VALID,98.646,VALID,0.0169808,VALID,18.8083,VALID,122,VALID,0.380008,
2001-08-06, 01:15:00,VALID,918.272,VALID,0,VALID,98.6129,VALID,0.0169808,VALID,18.7854,VALID,117,VALID,0.549479,
2001-08-06, 01:16:00,VALID,918.27,VALID,0,VALID,98.6384,VALID,0.0339617,VALID,18.7661,VALID,108,VALID,0.906851,
2001-08-06, 01:17:00,VALID,918.246,VALID,0,VALID,98.7121,VALID,0.0339617,VALID,18.7887,VALID,105,VALID,0.866268,
2001-08-06, 01:18:00,VALID,918.246,VALID,0,VALID,98.6727,VALID,0.0679233,VALID,18.785,VALID,91,VALID,0.675781,
2001-08-06, 01:19:00,VALID,918.236,VALID,0,VALID,98.6231,VALID,0.0169808,VALID,18.7693,VALID,94,VALID,0.985243,
2001-08-06, 01:20:00,VALID,918.228,VALID,0,VALID,98.6053,VALID,0.0169808,VALID,18.769,VALID,102,VALID,1.15864,
2001-08-06, 01:21:00,VALID,918.226,VALID,0,VALID,98.5239,VALID,0.0169808,VALID,18.7753,VALID,108,VALID,1.10241,
2001-08-06, 01:22:00,VALID,918.219,VALID,0,VALID,98.3929,VALID,0.0169808,VALID,18.8076,VALID,123,VALID,0.805715,
2001-08-06, 01:23:00,VALID,918.222,VALID,0,VALID,98.2416,VALID,0.0339617,VALID,18.8304,VALID,131,VALID,0.868273,
2001-08-06, 01:24:00,VALID,918.215,VALID,0,VALID,98.1183,VALID,0.0339617,VALID,18.847,VALID,126,VALID,0.837627,
2001-08-06, 01:25:00,VALID,918.214,VALID,0,VALID,98.0267,VALID,0.0339617,VALID,18.8433,VALID,109,VALID,0.69987,
2001-08-06, 01:26:00,VALID,918.218,VALID,0,VALID,97.9606,VALID,0.0679233,VALID,18.8302,VALID,118,VALID,0.881579,
2001-08-06, 01:27:00,VALID,918.21,VALID,0,VALID,97.9746,VALID,0.0679233,VALID,18.8468,VALID,134,VALID,0.904983,
2001-08-06, 01:28:00,VALID,918.2,VALID,0,VALID,97.9275,VALID,0.0339617,VALID,18.8463,VALID,139,VALID,0.696075,
2001-08-06, 01:29:00,VALID,918.188,VALID,0,VALID,97.8754,VALID,0.0169808,VALID,18.8468,VALID,127,VALID,0.689258,
2001-08-06, 01:30:00,VALID,918.172,VALID,0,VALID,97.9403,VALID,0,VALID,18.8533,VALID,135,VALID,1.2021,
2001-08-06, 01:31:00,VALID,918.168,VALID,0,VALID,98.0458,VALID,0.0339617,VALID,18.8503,VALID,139,VALID,1.32454,
2001-08-06, 01:32:00,VALID,918.161,VALID,0,VALID,98.1259,VALID,0.0339617,VALID,18.8304,VALID,140,VALID,1.01328,
2001-08-06, 01:33:00,VALID,918.151,VALID,0,VALID,98.2543,VALID,0,VALID,18.8274,VALID,128,VALID,1.08018,
2001-08-06, 01:34:00,VALID,918.153,VALID,0,VALID,98.3484,VALID,0.0169808,VALID,18.8048,VALID,131,VALID,0.658259,
2001-08-06, 01:35:00,VALID,918.151,VALID,0,VALID,98.44,VALID,0,VALID,18.7884,VALID,130,VALID,0.67488,
2001-08-06, 01:36:00,VALID,918.135,VALID,0,VALID,98.5061,VALID,0.0339617,VALID,18.7949,VALID,117,VALID,0.598524,
2001-08-06, 01:37:00,VALID,918.116,VALID,0,VALID,98.5494,VALID,0.0169808,VALID,18.779,VALID,74,VALID,0.3769,
2001-08-06, 01:38:00,VALID,918.08,VALID,0,VALID,98.5761,VALID,0.0169808,VALID,18.7661,VALID,97,VALID,0.794271,
2001-08-06, 01:39:00,VALID,918.078,VALID,0,VALID,98.6422,VALID,0.0169808,VALID,18.773,VALID,110,VALID,0.702508,
2001-08-06, 01:40:00,VALID,918.073,VALID,0,VALID,98.7108,VALID,0.0169808,VALID,18.7695,VALID,118,VALID,0.842105,
2001-08-06, 01:41:00,VALID,918.055,VALID,0,VALID,98.7668,VALID,0.0339617,VALID,18.769,VALID,119,VALID,0.708826,
2001-08-06, 01:42:00,VALID,918.046,VALID,0,VALID,98.7884,VALID,0.0169808,VALID,18.7824,VALID,120,VALID,0.696832,
2001-08-06, 01:43:00,VALID,918.037,VALID,0,VALID,98.7922,VALID,0,VALID,18.7785,VALID,112,VALID,0.582559,
2001-08-06, 01:44:00,VALID,918.044,VALID,0,VALID,98.7973,VALID,0.0509425,VALID,18.7854,VALID,101,VALID,0.563734,
2001-08-06, 01:45:00,VALID,918.021,VALID,0,VALID,98.81,VALID,0.0169808,VALID,18.7723,VALID,73,VALID,0.533654,
2001-08-06, 01:46:00,VALID,918.01,VALID,0,VALID,98.7871,VALID,0.0339617,VALID,18.7591,VALID,76,VALID,0.517428,
2001-08-06, 01:47:00,VALID,918.003,VALID,0,VALID,98.7744,VALID,0.0169808,VALID,18.7467,VALID,78,VALID,0.381546,
2001-08-06, 01:48:00,VALID,917.99,VALID,0,VALID,98.7782,VALID,0.0509425,VALID,18.7264,VALID,52,VALID,0.283923,
2001-08-06, 01:49:00,VALID,917.983,VALID,0,VALID,98.7643,VALID,0.0339617,VALID,18.7171,VALID,56,VALID,0.280849,
2001-08-06, 01:50:00,VALID,917.982,VALID,0,VALID,98.7655,VALID,0.0509425,VALID,18.7139,VALID,99,VALID,0.44391,
2001-08-06, 01:51:00,VALID,917.973,VALID,0,VALID,98.7846,VALID,0.0509425,VALID,18.7047,VALID,101,VALID,0.685662,
2001-08-06, 01:52:00,VALID,917.968,VALID,0,VALID,98.8024,VALID,0.0679233,VALID,18.7102,VALID,95,VALID,0.721217,
2001-08-06, 01:53:00,VALID,917.979,VALID,0,VALID,98.7871,VALID,0.0679233,VALID,18.7139,VALID,86,VALID,0.636402,
2001-08-06, 01:54:00,VALID,917.975,VALID,0,VALID,98.7452,VALID,0.0679233,VALID,18.7201,VALID,102,VALID,0.694878,
2001-08-06, 01:55:00,VALID,917.977,VALID,0,VALID,98.6918,VALID,0.0679233,VALID,18.7271,VALID,115,VALID,0.896918,
2001-08-06, 01:56:00,VALID,917.992,VALID,0,VALID,98.6638,VALID,0.0679233,VALID,18.7303,VALID,114,VALID,0.85588,
2001-08-06, 01:57:00,VALID,917.993,VALID,0,VALID,98.6117,VALID,0.0679233,VALID,18.7464,VALID,112,VALID,0.997327,
2001-08-06, 01:58:00,VALID,917.986,VALID,0,VALID,98.5252,VALID,0.0339617,VALID,18.7497,VALID,113,VALID,1.00152,
2001-08-06, 01:59:00,VALID,917.985,VALID,0,VALID,98.4781,VALID,-0.0679233,VALID,18.7772,VALID,123,VALID,0.736161,
2001-08-06, 02:00:00,VALID,917.959,VALID,0,VALID,98.3828,VALID,-0.0339617,VALID,18.77,VALID,129,VALID,0.771998,
2001-08-06, 02:01:00,VALID,917.931,VALID,0,VALID,98.2861,VALID,-0.0169808,VALID,18.7933,VALID,138,VALID,0.723157,
2001-08-06, 02:02:00,VALID,917.907,VALID,0,VALID,98.173,VALID,-0.0679233,VALID,18.8095,VALID,144,VALID,0.755859,
2001-08-06, 02:03:00,VALID,917.899,VALID,0,VALID,98.0394,VALID,-0.0509425,VALID,18.8187,VALID,156,VALID,0.540502,
2001-08-06, 02:04:00,VALID,917.893,VALID,0,VALID,97.9593,VALID,-0.0679233,VALID,18.8355,VALID,151,VALID,0.439967,
2001-08-06, 02:05:00,VALID,917.89,VALID,0,VALID,97.8996,VALID,-0.101885,VALID,18.8547,VALID,150,VALID,0.51863,
2001-08-06, 02:06:00,VALID,917.886,VALID,0,VALID,97.8334,VALID,0,VALID,18.8609,VALID,160,VALID,0.459135,
2001-08-06, 02:07:00,VALID,917.885,VALID,0,VALID,97.7775,VALID,-0.0509425,VALID,18.8674,VALID,159,VALID,0.190104,
2001-08-06, 02:08:00,VALID,917.897,VALID,0,VALID,97.7482,VALID,-0.0339617,VALID,18.8904,VALID,154,VALID,0.431756,
2001-08-06, 02:09:00,VALID,917.906,VALID,0,VALID,97.7508,VALID,-0.0679233,VALID,18.883,VALID,144,VALID,0.823438,
2001-08-06, 02:10:00,VALID,917.896,VALID,0,VALID,97.7584,VALID,-0.0509425,VALID,18.8865,VALID,142,VALID,0.919271,
2001-08-06, 02:11:00,VALID,917.904,VALID,0,VALID,97.7788,VALID,-0.0679233,VALID,18.8833,VALID,135,VALID,0.798828,
2001-08-06, 02:12:00,VALID,917.913,VALID,0,VALID,97.7838,VALID,-0.0509425,VALID,18.8736,VALID,137,VALID,0.460938,
2001-08-06, 02:13:00,VALID,917.923,VALID,0,VALID,97.8067,VALID,-0.0339617,VALID,18.8544,VALID,150,VALID,0.185033,
2001-08-06, 02:14:00,VALID,917.932,VALID,0,VALID,97.8423,VALID,-0.0339617,VALID,18.8473,VALID,149,VALID,0.467014,
2001-08-06, 02:15:00,VALID,917.938,VALID,0,VALID,97.8665,VALID,-0.0169808,VALID,18.8212,VALID,138,VALID,0.747255,
2001-08-06, 02:16:00,VALID,917.947,VALID,0,VALID,97.9326,VALID,-0.0339617,VALID,18.8249,VALID,135,VALID,0.684896,
2001-08-06, 02:17:00,VALID,917.95,VALID,0,VALID,97.9555,VALID,-0.0509425,VALID,18.8284,VALID,139,VALID,1.04646,
2001-08-06, 02:18:00,VALID,917.968,VALID,0,VALID,97.9619,VALID,-0.0509425,VALID,18.8217,VALID,137,VALID,0.618877,
2001-08-06, 02:19:00,VALID,917.971,VALID,0,VALID,97.953,VALID,0,VALID,18.8217,VALID,126,VALID,0.542492,
2001-08-06, 02:20:00,VALID,917.98,VALID,0,VALID,97.9848,VALID,-0.0339617,VALID,18.8184,VALID,118,VALID,0.537891,
2001-08-06, 02:21:00,VALID,918.008,VALID,0,VALID,98.0356,VALID,-0.0339617,VALID,18.8343,VALID,53,VALID,0.441406,
2001-08-06, 02:22:00,VALID,918.011,VALID,0,VALID,98.0547,VALID,-0.0339617,VALID,18.8376,VALID,42,VALID,0.762247,
2001-08-06, 02:23:00,VALID,918.014,VALID,0,VALID,98.0483,VALID,-0.0339617,VALID,18.8473,VALID,37,VALID,1.09199,
2001-08-06, 02:24:00,VALID,918.005,VALID,0,VALID,97.972,VALID,0,VALID,18.8537,VALID,43,VALID,1.38425,
2001-08-06, 02:25:01,VALID,918.002,VALID,0,VALID,97.8716,VALID,-0.0339617,VALID,18.8376,VALID,52,VALID,1.26339,
2001-08-06, 02:26:00,VALID,918.007,VALID,0,VALID,97.7953,VALID,-0.0169808,VALID,18.8085,VALID,44,VALID,1.39423,
2001-08-06, 02:27:00,VALID,918.003,VALID,0,VALID,97.7966,VALID,-0.0169808,VALID,18.8023,VALID,48,VALID,1.05122,
2001-08-06, 02:28:00,VALID,918.02,VALID,0,VALID,97.8271,VALID,0,VALID,18.7926,VALID,38,VALID,0.810811,
2001-08-06, 02:29:00,VALID,918.023,VALID,0,VALID,97.8881,VALID,-0.0169808,VALID,18.7794,VALID,22,VALID,0.784255,
2001-08-06, 02:30:00,VALID,918.032,VALID,0,VALID,97.9072,VALID,-0.0509425,VALID,18.7762,VALID,26,VALID,1.15193,
2001-08-06, 02:31:00,VALID,918.024,VALID,0,VALID,97.8932,VALID,-0.0169808,VALID,18.7635,VALID,35,VALID,1.06826,
2001-08-06, 02:32:00,VALID,918.018,VALID,0,VALID,97.8474,VALID,-0.0169808,VALID,18.7568,VALID,42,VALID,1.10325,
2001-08-06, 02:33:00,VALID,917.999,VALID,0,VALID,97.766,VALID,-0.0339617,VALID,18.7765,VALID,48,VALID,0.910807,
2001-08-06, 02:34:00,VALID,917.99,VALID,0,VALID,97.6936,VALID,-0.0169808,VALID,18.776,VALID,57,VALID,0.660895,
2001-08-06, 02:35:00,VALID,917.971,VALID,0,VALID,97.6147,VALID,-0.0169808,VALID,18.7894,VALID,64,VALID,0.684005,
2001-08-06, 02:36:00,VALID,917.959,VALID,0,VALID,97.5143,VALID,0,VALID,18.8021,VALID,70,VALID,0.465545,
2001-08-06, 02:37:00,VALID,917.937,VALID,0,VALID,97.4634,VALID,-0.0169808,VALID,18.7991,VALID,68,VALID,0.47516,
2001-08-06, 02:38:01,VALID,917.932,VALID,0,VALID,97.4138,VALID,0,VALID,18.805,VALID,62,VALID,0.535473,
2001-08-06, 02:39:00,VALID,917.923,VALID,0,VALID,97.4087,VALID,0,VALID,18.8021,VALID,56,VALID,0.81949,
2001-08-06, 02:40:00,VALID,917.919,VALID,0,VALID,97.3553,VALID,0,VALID,18.7889,VALID,49,VALID,0.726162,
2001-08-06, 02:41:00,VALID,917.923,VALID,0,VALID,97.382,VALID,0,VALID,18.7824,VALID,48,VALID,0.397636,
2001-08-06, 02:42:00,VALID,917.936,VALID,0,VALID,97.41,VALID,0,VALID,18.7564,VALID,48,VALID,0.183594,
2001-08-06, 02:43:00,VALID,917.955,VALID,0,VALID,97.4621,VALID,0,VALID,18.7467,VALID,51,VALID,0.00493421,
2001-08-06, 02:44:00,VALID,917.972,VALID,0,VALID,97.5092,VALID,-0.0849042,VALID,18.7342,VALID,52,VALID,0,
2001-08-06, 02:45:00,VALID,917.979,VALID,0,VALID,97.5422,VALID,0,VALID,18.734,VALID,55,VALID,0.000434028,
2001-08-06, 02:46:00,VALID,917.971,VALID,0,VALID,97.5906,VALID,-0.0339617,VALID,18.7211,VALID,100,VALID,0.458116,
2001-08-06, 02:47:01,VALID,917.973,VALID,0,VALID,97.6185,VALID,0,VALID,18.7109,VALID,104,VALID,0.13014,
2001-08-06, 02:48:00,VALID,917.956,VALID,0,VALID,97.6872,VALID,-0.0679233,VALID,18.7151,VALID,104,VALID,0,
2001-08-06, 02:49:00,VALID,917.959,VALID,0,VALID,97.7304,VALID,-0.0169808,VALID,18.7179,VALID,109,VALID,0.528863,
2001-08-06, 02:50:00,VALID,917.959,VALID,0,VALID,97.7228,VALID,-0.0169808,VALID,18.7112,VALID,102,VALID,0.871205,
2001-08-06, 02:51:00,VALID,917.966,VALID,0,VALID,97.6643,VALID,-0.0339617,VALID,18.7476,VALID,87,VALID,0.724095,
2001-08-06, 02:52:00,VALID,917.973,VALID,0,VALID,97.5728,VALID,0,VALID,18.767,VALID,97,VALID,0.677484,
2001-08-06, 02:53:01,VALID,917.973,VALID,0,VALID,97.4888,VALID,-0.0169808,VALID,18.7665,VALID,92,VALID,0.683203,
2001-08-06, 02:54:00,VALID,917.98,VALID,0,VALID,97.4469,VALID,-0.0169808,VALID,18.7926,VALID,83,VALID,0.614309,
2001-08-06, 02:55:00,VALID,917.997,VALID,0,VALID,97.3629,VALID,-0.0169808,VALID,18.8053,VALID,86,VALID,0.630962,
2001-08-06, 02:56:00,VALID,917.991,VALID,0,VALID,97.2968,VALID,-0.0339617,VALID,18.809,VALID,95,VALID,0.733974,
2001-08-06, 02:57:00,VALID,917.989,VALID,0,VALID,97.2129,VALID,-0.0339617,VALID,18.8085,VALID,106,VALID,0.992588,
2001-08-06, 02:58:00,VALID,917.994,VALID,0,VALID,97.1239,VALID,-0.0339617,VALID,18.8247,VALID,109,VALID,0.924079,
2001-08-06, 02:59:00,VALID,917.99,VALID,0,VALID,96.9471,VALID,-0.0169808,VALID,18.8572,VALID,108,VALID,0.992877,
2001-08-06, 03:00:01,VALID,917.992,VALID,0,VALID,96.703,VALID,-0.0169808,VALID,18.8756,VALID,105,VALID,0.870703,
2001-08-06, 03:01:01,VALID,917.987,VALID,0,VALID,96.2795,VALID,-0.0169808,VALID,18.9379,VALID,95,VALID,0.913194,
2001-08-06, 03:02:01,VALID,917.984,VALID,0,VALID,95.9324,VALID,0,VALID,18.9963,VALID,89,VALID,0.577257,
2001-08-06, 03:03:00,VALID,917.976,VALID,0,VALID,95.7607,VALID,0,VALID,19.0274,VALID,83,VALID,0.315034,
2001-08-06, 03:04:00,VALID,917.973,VALID,0,VALID,95.5496,VALID,0,VALID,19.0505,VALID,87,VALID,0.384457,
2001-08-06, 03:05:00,VALID,917.975,VALID,0,VALID,95.4428,VALID,0,VALID,19.0634,VALID,90,VALID,0.441623,
2001-08-06, 03:06:01,VALID,917.97,VALID,0,VALID,95.3653,VALID,0,VALID,19.0599,VALID,90,VALID,0.413851,
2001-08-06, 03:07:00,VALID,917.961,VALID,0,VALID,95.3157,VALID,0.0169808,VALID,19.0768,VALID,92,VALID,0.375217,
2001-08-06, 03:08:01,VALID,917.955,VALID,0,VALID,95.364,VALID,0,VALID,19.0731,VALID,93,VALID,0.530428,
2001-08-06, 03:09:01,VALID,917.957,VALID,0,VALID,95.4174,VALID,0,VALID,19.0798,VALID,92,VALID,0.265414,
2001-08-06, 03:10:00,VALID,917.951,VALID,0,VALID,95.4517,VALID,-0.0169808,VALID,19.0699,VALID,92,VALID,0.0727896,
2001-08-06, 03:11:00,VALID,917.934,VALID,0,VALID,95.5573,VALID,0,VALID,19.057,VALID,92,VALID,0.133984,
2001-08-06, 03:12:01,VALID,917.941,VALID,0,VALID,95.5865,VALID,-0.0169808,VALID,19.044,VALID,92,VALID,0.167352,
2001-08-06, 03:13:00,VALID,917.936,VALID,0,VALID,95.5535,VALID,0,VALID,19.0346,VALID,95,VALID,0.525549,
2001-08-06, 03:14:00,VALID,917.934,VALID,0,VALID,95.5306,VALID,-0.0339617,VALID,19.0577,VALID,141,VALID,0.261328,
2001-08-06, 03:15:00,VALID,917.916,VALID,0,VALID,95.5674,VALID,-0.0849042,VALID,19.0475,VALID,166,VALID,0.134663,
2001-08-06, 03:16:01,VALID,917.932,VALID,0,VALID,95.6832,VALID,-0.0509425,VALID,19.051,VALID,166,VALID,0,
2001-08-06, 03:17:00,VALID,917.912,VALID,0,VALID,95.687,VALID,-0.0339617,VALID,19.0413,VALID,166,VALID,0,
2001-08-06, 03:18:00,VALID,917.907,VALID,0,VALID,95.7747,VALID,-0.0509425,VALID,19.0577,VALID,166,VALID,0,
2001-08-06, 03:19:01,VALID,917.897,VALID,0,VALID,95.7684,VALID,-0.101885,VALID,19.0477,VALID,166,VALID,0,
2001-08-06, 03:20:00,VALID,917.893,VALID,0,VALID,95.7925,VALID,-0.0679233,VALID,19.0445,VALID,166,VALID,0,
2001-08-06, 03:21:00,VALID,917.872,VALID,0,VALID,95.8129,VALID,-0.0339617,VALID,19.0485,VALID,166,VALID,0,
2001-08-06, 03:22:00,VALID,917.854,VALID,0,VALID,95.8574,VALID,-0.101885,VALID,19.0286,VALID,166,VALID,0,
2001-08-06, 03:23:00,VALID,917.843,VALID,0,VALID,95.9438,VALID,-0.0509425,VALID,19.0154,VALID,166,VALID,0,
2001-08-06, 03:24:00,VALID,917.835,VALID,0,VALID,96.0049,VALID,-0.0509425,VALID,18.9931,VALID,122,VALID,0.152561,
2001-08-06, 03:25:00,VALID,917.806,VALID,0,VALID,96.071,VALID,-0.0339617,VALID,18.9769,VALID,53,VALID,0.52027,
2001-08-06, 03:26:00,VALID,917.802,VALID,0,VALID,96.1613,VALID,-0.0849042,VALID,18.9347,VALID,48,VALID,0.28639,
2001-08-06, 03:27:01,VALID,917.795,VALID,0,VALID,96.2948,VALID,-0.0339617,VALID,18.9188,VALID,48,VALID,0.0104167,
2001-08-06, 03:28:00,VALID,917.806,VALID,0,VALID,96.3609,VALID,-0.0509425,VALID,18.8927,VALID,48,VALID,0,
2001-08-06, 03:29:01,VALID,917.803,VALID,0,VALID,96.3813,VALID,-0.0339617,VALID,18.8535,VALID,48,VALID,0,
2001-08-06, 03:30:00,VALID,917.807,VALID,0,VALID,96.5644,VALID,-0.0679233,VALID,18.8309,VALID,48,VALID,0,
2001-08-06, 03:31:00,VALID,917.815,VALID,0,VALID,96.7462,VALID,-0.0509425,VALID,18.8279,VALID,48,VALID,0,